| time (UTC) | temp F | wind direction | speed MPH | gust MPH | rain 1hr in | rain 24hr in | rain mn in | humidity % | barometer mb |
| 20260506184523 | 46 | 0 | 9.0 | 17.0 | 0.00 | 0.01 | 0.01 | 75 | 1010.5 |
| 20260506183458 | 43 | 265 | 3.0 | 16.0 | 0.00 | 0.01 | 0.01 | 81 | 1010.8 |
| 20260506181411 | 40 | 274 | 4.0 | 11.0 | 0.00 | 0.01 | 0.01 | 83 | 1011.4 |
| 20260506180422 | 39 | 0 | 4.0 | 11.0 | 0.00 | 0.01 | 0.01 | 84 | 1011.3 |
| 20260506175446 | 39 | 333 | 9.0 | 21.0 | 0.00 | 0.01 | 0.01 | 83 | 1011.5 |
| 20260506174434 | 40 | 331 | 14.0 | 32.0 | 0.00 | 0.00 | 0.00 | 82 | 1011.6 |
| 20260506173410 | 42 | 0 | 19.0 | 32.0 | 0.00 | 0.00 | 0.00 | 75 | 1011.2 |
| 20260506172408 | 46 | 0 | 17.0 | 27.0 | 0.00 | 0.00 | 0.00 | 64 | 1010.4 |
| 20260506171344 | 46 | 0 | 18.0 | 30.0 | 0.00 | 0.00 | 0.00 | 62 | 1010.1 |
| 20260506170340 | 47 | 0 | 19.0 | 30.0 | 0.00 | 0.00 | 0.00 | 63 | 1009.8 |
| 20260506165352 | 53 | 0 | 14.0 | 23.0 | 0.00 | 0.00 | 0.00 | 40 | 1008.7 |
| 20260506162049 | 54 | 261 | 7.0 | 18.0 | 0.00 | 0.00 | 0.00 | 40 | 1008.6 |
| 20260506161105 | 53 | 256 | 10.0 | 18.0 | 0.00 | 0.00 | 0.00 | 42 | 1008.6 |
| 20260506160057 | 52 | 254 | 9.0 | 17.0 | 0.00 | 0.00 | 0.00 | 43 | 1008.7 |
| 20260506155105 | 51 | 264 | 11.0 | 17.0 | 0.00 | 0.00 | 0.00 | 44 | 1008.8 |
| 20260506154114 | 50 | 238 | 6.0 | 18.0 | 0.00 | 0.00 | 0.00 | 47 | 1008.8 |
| 20260506153046 | 49 | 255 | 7.0 | 20.0 | 0.00 | 0.00 | 0.00 | 47 | 1008.9 |
| 20260506152023 | 49 | 252 | 7.0 | 20.0 | 0.00 | 0.00 | 0.00 | 48 | 1008.8 |
| 20260506151030 | 49 | 237 | 6.0 | 16.0 | 0.00 | 0.00 | 0.00 | 49 | 1008.7 |
| 20260506145955 | 47 | 258 | 1.0 | 0.0 | 0.00 | 0.00 | 0.00 | 52 | 1008.7 |
| 20260506143843 | 47 | 252 | 3.0 | 11.0 | 0.00 | 0.00 | 0.00 | 51 | 1008.9 |
| 20260506141727 | 47 | 258 | 3.0 | 12.0 | 0.00 | 0.00 | 0.00 | 53 | 1008.8 |
| 20260506140727 | 47 | 59 | 0.0 | 0.0 | 0.00 | 0.00 | 0.00 | 56 | 1008.7 |
| 20260506134602 | 44 | 72 | 0.0 | 0.0 | 0.00 | 0.00 | 0.00 | 61 | 1008.6 |
| 20260506133532 | 43 | 72 | 0.0 | 0.0 | 0.00 | 0.00 | 0.00 | 65 | 1008.5 |
| 20260506131351 | 37 | 73 | 0.0 | 0.0 | 0.00 | 0.00 | 0.00 | 72 | 1008.3 |
| 20260506130322 | 36 | 73 | 0.0 | 0.0 | 0.00 | 0.00 | 0.00 | 72 | 1008.2 |
| 20260506125316 | 36 | 73 | 0.0 | 0.0 | 0.00 | 0.00 | 0.00 | 73 | 1008.1 |
| 20260506124256 | 36 | 73 | 0.0 | 0.0 | 0.00 | 0.00 | 0.00 | 74 | 1008.0 |
| 20260506122118 | 35 | 74 | 0.0 | 0.0 | 0.00 | 0.00 | 0.00 | 76 | 1007.7 |
| 20260506121102 | 34 | 74 | 0.0 | 0.0 | 0.00 | 0.00 | 0.00 | 77 | 1007.6 |
| 20260506120109 | 33 | 105 | 0.0 | 0.0 | 0.00 | 0.00 | 0.00 | 78 | 1007.4 |
| 20260506115058 | 33 | 105 | 0.0 | 0.0 | 0.00 | 0.00 | 0.00 | 77 | 1007.3 |
| 20260506112920 | 33 | 105 | 0.0 | 0.0 | 0.00 | 0.00 | 0.00 | 78 | 1007.1 |
| 20260506111901 | 33 | 105 | 0.0 | 0.0 | 0.00 | 0.00 | 0.00 | 80 | 1007.2 |
| 20260506110827 | 32 | 105 | 0.0 | 0.0 | 0.00 | 0.00 | 0.00 | 82 | 1007.2 |
| 20260506105851 | 31 | 105 | 0.0 | 0.0 | 0.00 | 0.00 | 0.00 | 81 | 1007.0 |
| 20260506102628 | 31 | 105 | 0.0 | 0.0 | 0.00 | 0.00 | 0.00 | 81 | 1006.6 |
| 20260506100457 | 31 | 105 | 0.0 | 0.0 | 0.00 | 0.00 | 0.00 | 78 | 1006.3 |
| 20260506095426 | 32 | 105 | 0.0 | 0.0 | 0.00 | 0.00 | 0.00 | 77 | 1006.3 |
| 20260506094435 | 32 | 105 | 0.0 | 0.0 | 0.00 | 0.00 | 0.00 | 77 | 1006.2 |
| 20260506093437 | 32 | 105 | 0.0 | 0.0 | 0.00 | 0.00 | 0.00 | 76 | 1006.1 |
| 20260506092500 | 33 | 105 | 0.0 | 0.0 | 0.00 | 0.00 | 0.00 | 77 | 1006.2 |
| 20260506091455 | 33 | 105 | 0.0 | 0.0 | 0.00 | 0.00 | 0.00 | 76 | 1006.3 |
| 20260506085402 | 34 | 105 | 0.0 | 0.0 | 0.00 | 0.00 | 0.00 | 76 | 1006.3 |
| 20260506082202 | 34 | 105 | 0.0 | 0.0 | 0.00 | 0.00 | 0.00 | 74 | 1006.2 |
| 20260506081145 | 35 | 105 | 0.0 | 0.0 | 0.00 | 0.00 | 0.00 | 73 | 1006.2 |
| 20260506080126 | 36 | 105 | 0.0 | 0.0 | 0.00 | 0.00 | 0.00 | 71 | 1006.0 |
| 20260506073126 | 36 | 105 | 0.0 | 0.0 | 0.00 | 0.00 | 0.00 | 69 | 1006.1 |
| 20260506072110 | 36 | 105 | 0.0 | 0.0 | 0.00 | 0.00 | 0.00 | 68 | 1006.0 |
| 20260506071041 | 37 | 105 | 0.0 | 0.0 | 0.00 | 0.00 | 0.00 | 67 | 1005.9 |
| 20260506062016 | 39 | 105 | 0.0 | 0.0 | 0.00 | 0.00 | 0.00 | 64 | 1005.5 |
| 20260506061000 | 40 | 105 | 0.0 | 0.0 | 0.00 | 0.00 | 0.00 | 63 | 1005.3 |
| 20260506050845 | 42 | 107 | 0.0 | 0.0 | 0.00 | 0.00 | 0.00 | 64 | 1004.8 |
| 20260506041349 | 44 | 105 | 0.0 | 0.0 | 0.00 | 0.00 | 0.00 | 63 | 1003.8 |
| 20260506040321 | 44 | 105 | 0.0 | 0.0 | 0.00 | 0.00 | 0.00 | 64 | 1003.8 |
| 20260506035336 | 43 | 134 | 0.0 | 1.0 | 0.00 | 0.00 | 0.00 | 64 | 1003.9 |
| 20260506034314 | 44 | 157 | 0.0 | 0.0 | 0.00 | 0.00 | 0.00 | 62 | 1003.7 |
| 20260506032209 | 45 | 157 | 0.0 | 0.0 | 0.00 | 0.00 | 0.00 | 64 | 1003.3 |
| 20260506031201 | 45 | 157 | 0.0 | 1.0 | 0.00 | 0.00 | 0.00 | 62 | 1003.1 |
| 20260506030204 | 45 | 157 | 0.0 | 0.0 | 0.00 | 0.00 | 0.00 | 62 | 1002.7 |
| 20260506025131 | 46 | 157 | 0.0 | 0.0 | 0.00 | 0.00 | 0.00 | 60 | 1002.4 |
| 20260506024110 | 46 | 157 | 0.0 | 0.0 | 0.00 | 0.00 | 0.00 | 60 | 1002.2 |
| 20260506023036 | 47 | 157 | 0.0 | 0.0 | 0.00 | 0.00 | 0.00 | 57 | 1001.9 |
| 20260506022006 | 48 | 166 | 0.0 | 7.0 | 0.00 | 0.00 | 0.00 | 56 | 1001.7 |
| 20260506021004 | 48 | 173 | 0.0 | 1.0 | 0.00 | 0.00 | 0.00 | 54 | 1001.6 |
| 20260506013746 | 50 | 221 | 16.0 | 28.0 | 0.00 | 0.00 | 0.00 | 53 | 1001.0 |
| 20260506012721 | 51 | 184 | 18.0 | 27.0 | 0.00 | 0.00 | 0.00 | 49 | 1000.9 |
| 20260506011654 | 53 | 192 | 11.0 | 22.0 | 0.00 | 0.00 | 0.00 | 41 | 1000.7 |
| 20260506010701 | 54 | 189 | 7.0 | 19.0 | 0.00 | 0.00 | 0.00 | 39 | 1000.4 |
| 20260506004511 | 57 | 163 | 0.0 | 9.0 | 0.00 | 0.00 | 0.00 | 28 | 999.7 |
| 20260506001229 | 59 | 224 | 3.0 | 11.0 | 0.00 | 0.00 | 0.00 | 25 | 999.2 |
| 20260505235055 | 60 | 248 | 1.0 | 0.0 | 0.00 | 0.00 | 0.00 | 24 | 999.1 |
| 20260505234045 | 61 | 0 | 4.0 | 1.0 | 0.00 | 0.00 | 0.00 | 23 | 998.9 |
| 20260505233011 | 61 | 247 | 4.0 | 16.0 | 0.00 | 0.00 | 0.00 | 23 | 998.9 |
| 20260505231957 | 61 | 212 | 4.0 | 16.0 | 0.00 | 0.00 | 0.00 | 24 | 999.0 |
| 20260505225906 | 62 | 230 | 7.0 | 15.0 | 0.00 | 0.00 | 0.00 | 24 | 998.9 |
| 20260505224929 | 62 | 219 | 0.0 | 18.0 | 0.00 | 0.00 | 0.00 | 24 | 999.1 |
| 20260505222806 | 61 | 255 | 3.0 | 19.0 | 0.00 | 0.00 | 0.00 | 24 | 999.5 |
| 20260505221806 | 61 | 234 | 3.0 | 19.0 | 0.00 | 0.00 | 0.00 | 25 | 999.6 |
| 20260505220808 | 60 | 215 | 0.0 | 1.0 | 0.00 | 0.00 | 0.00 | 26 | 999.9 |
| 20260505215830 | 60 | 202 | 1.0 | 3.0 | 0.00 | 0.00 | 0.00 | 26 | 1000.1 |
| 20260505214802 | 60 | 251 | 4.0 | 13.0 | 0.00 | 0.00 | 0.00 | 26 | 1000.2 |
| 20260505213756 | 60 | 275 | 4.0 | 15.0 | 0.00 | 0.00 | 0.00 | 27 | 1000.3 |
| 20260505212752 | 60 | 217 | 3.0 | 15.0 | 0.00 | 0.00 | 0.00 | 27 | 1000.6 |
| 20260505211817 | 60 | 209 | 4.0 | 14.0 | 0.00 | 0.00 | 0.00 | 27 | 1000.9 |
| 20260505205621 | 61 | 263 | 1.0 | 12.0 | 0.00 | 0.00 | 0.00 | 25 | 1001.2 |
| 20260505204631 | 60 | 234 | 3.0 | 12.0 | 0.00 | 0.00 | 0.00 | 25 | 1001.3 |
| 20260505203643 | 62 | 0 | 4.0 | 16.0 | 0.00 | 0.00 | 0.00 | 23 | 1001.4 |
| 20260505202644 | 63 | 225 | 6.0 | 18.0 | 0.00 | 0.00 | 0.00 | 23 | 1001.5 |
| 20260505201651 | 61 | 227 | 4.0 | 18.0 | 0.00 | 0.00 | 0.00 | 24 | 1001.6 |
| 20260505200622 | 60 | 248 | 1.0 | 0.0 | 0.00 | 0.00 | 0.00 | 25 | 1001.8 |
| 20260505195559 | 60 | 0 | 6.0 | 16.0 | 0.00 | 0.00 | 0.00 | 25 | 1001.9 |
| 20260505194615 | 60 | 222 | 1.0 | 13.0 | 0.00 | 0.00 | 0.00 | 25 | 1001.9 |
| 20260505193612 | 61 | 228 | 7.0 | 17.0 | 0.00 | 0.00 | 0.00 | 24 | 1001.9 |
| 20260505192620 | 61 | 252 | 3.0 | 14.0 | 0.00 | 0.00 | 0.00 | 22 | 1001.9 |
| 20260505191637 | 61 | 0 | 4.0 | 14.0 | 0.00 | 0.00 | 0.00 | 23 | 1002.2 |
| 20260505190629 | 60 | 227 | 0.0 | 14.0 | 0.00 | 0.00 | 0.00 | 24 | 1002.2 |
| 20260505185649 | 59 | 0 | 3.0 | 9.0 | 0.00 | 0.00 | 0.00 | 24 | 1002.3 |